Wind_Speed
13 13 13 12 12 11 11 10 10 10 10 10 11 12 12 12 12 12 12 12 11 11 11 10 11 11 11 11 11 10 9 8 9 9 8 8 8 9 9 9 9 9 9
13 13 12 12 11 10 10 9 10 10 10 11 11 13 12 12 12 12 13 13 12 11 11 11 10 11 11 11 12 11 10 9 9 9 9 9 9 10 10 11 10 10 10
13 14 12 11 11 10 10 10 10 10 11 11 11 11 11 12 13 13 14 13 12 11 11 11 11 11 11 11 11 10 10 10 10 10 10 10 10 10 10 11 11 10 10
14 14 12 11 10 10 10 10 10 11 11 11 11 11 12 12 13 13 13 13 13 12 12 12 12 12 11 11 11 11 10 10 11 10 9 10 10 10 11 11 10 10 11
14 14 12 11 11 10 10 11 11 11 11 11 11 11 11 12 12 12 12 13 12 12 12 12 12 11 11 11 11 12 11 10 10 10 10 10 10 10 10 11 11 11 11
13 13 12 12 11 10 11 10 11 12 12 11 12 12 12 12 12 12 12 12 12 11 11 11 11 11 11 11 12 11 11 11 10 10 10 10 10 10 10 11 11 11 11
14 12 11 11 10 11 11 10 11 11 12 11 12 12 12 12 13 13 12 12 11 11 10 10 10 11 11 11 11 11 11 11 11 10 10 11 11 11 10 10 10 11 11
14 13 11 10 11 10 11 11 11 11 12 11 12 12 12 13 13 13 12 11 11 11 11 11 11 10 11 11 12 11 11 10 11 11 11 11 11 11 10 11 11 11 11
13 12 12 11 12 12 11 11 11 12 12 11 11 11 12 11 11 12 11 11 12 12 12 12 12 11 11 11 12 11 11 11 11 12 12 12 12 11 11 11 11 11 11
15 13 13 12 12 12 12 12 13 13 13 13 13 12 12 12 11 12 12 12 13 13 14 13 13 12 12 11 12 12 12 12 12 12 12 12 12 12 13 13 12 12 12
15 15 14 13 13 13 13 14 14 14 14 14 14 14 13 14 14 14 14 13 13 14 14 14 13 13 13 13 13 13 13 12 12 13 13 13 13 13 13 13 12 12 12
16 16 16 16 16 16 15 14 15 15 16 17 17 17 17 17 16 16 16 16 16 16 15 15 14 14 13 14 14 14 13 13 13 14 13 13 13 12 12 12 13 13 13
18 18 18 18 18 17 17 16 16 17 17 18 19 19 19 19 18 18 17 17 17 17 16 16 16 16 15 15 15 15 14 14 14 14 14 14 13 12 13 13 13 13 13
19 19 20 19 19 19 19 18 18 18 19 19 20 20 20 20 20 19 18 19 19 18 17 18 18 18 17 17 16 16 16 16 15 15 15 14 13 13 14 14 14 14 14
20 20 21 20 21 21 20 20 20 20 20 20 20 20 20 20 19 19 19 20 20 20 20 19 19 19 19 18 18 17 17 17 17 16 16 15 15 15 15 15 15 15 15
21 20 21 21 21 21 21 21 20 20 21 21 21 21 20 20 20 20 20 21 22 21 21 20 20 20 19 19 19 19 18 18 18 17 17 17 16 16 16 16 16 16 16
23 22 21 22 22 22 21 21 22 22 21 21 21 21 21 21 21 21 21 21 21 21 21 21 21 20 21 20 19 19 19 19 18 18 18 18 17 17 17 17 17 17 17
24 24 23 23 23 23 23 23 24 24 23 22 23 23 23 22 21 21 22 23 23 21 21 22 21 21 21 21 21 20 20 19 19 20 19 19 18 18 18 18 19 19 19
25 24 24 24 24 24 25 24 24 24 23 22 22 23 23 23 23 23 23 24 24 24 23 22 22 21 21 21 22 22 21 21 21 21 20 20 19 20 20 20 20 20 20
26 25 25 24 24 24 24 23 23 24 23 22 22 23 23 23 24 24 24 24 25 25 25 24 23 22 22 22 23 23 23 22 22 22 22 21 21 21 21 21 21 21 21
27 25 25 24 24 24 23 23 22 23 23 23 23 23 23 24 24 24 24 25 25 26 26 26 25 24 23 23 24 24 24 23 23 23 23 22 22 22 23 22 22 22 22
25 25 25 25 25 24 24 23 24 25 25 25 24 24 24 24 24 24 24 25 25 26 25 25 25 25 25 25 25 25 25 25 25 24 24 24 23 23 23 22 22 22 22
27 26 26 26 25 25 25 25 25 26 26 26 25 25 25 24 25 25 25 25 24 24 25 26 26 26 26 26 25 25 25 26 26 26 25 24 24 24 24 24 23 22 22
27 27 27 27 27 26 26 26 26 26 26 26 25 25 25 25 25 25 25 25 25 24 25 26 26 26 26 26 26 26 26 26 25 25 25 25 25 24 24 25 24 23 23
27 27 28 29 28 28 27 27 27 27 26 26 25 25 26 26 26 26 25 25 25 25 25 26 26 26 26 27 26 26 27 26 25 25 26 26 26 25 25 25 25 25 24
27 28 28 28 28 28 27 27 26 26 26 26 26 26 26 26 25 25 25 25 25 25 24 25 27 27 27 27 27 26 26 27 26 26 26 26 26 26 26 26 26 26 25
Wind_Direction
301 302 300 301 302 301 296 286 284 283 281 276 274 272 271 265 262 267 269 266 265 267 260 260 256 252 248 245 247 248 250 250 254 258 262 260 256 260 261 264 266 266 266
298 305 305 303 303 300 292 285 284 281 279 276 273 268 267 263 262 266 269 265 262 259 255 255 253 247 245 244 246 246 249 252 256 262 263 262 257 257 260 264 265 267 270
300 301 298 296 298 295 290 287 283 281 279 277 274 271 266 265 261 263 263 260 257 257 258 255 247 240 241 242 243 247 251 254 257 258 259 261 258 258 263 265 266 268 272
294 295 294 291 294 293 288 285 283 281 280 278 273 269 265 263 260 259 261 260 256 254 252 253 246 241 242 244 246 248 249 252 254 257 257 259 259 264 268 269 270 272 273
286 286 286 285 286 286 287 282 279 279 279 276 273 271 267 259 253 257 261 259 256 253 247 246 243 242 245 247 248 249 250 252 253 256 258 257 260 268 273 273 271 270 270
281 280 284 284 283 286 286 281 277 276 278 272 269 269 265 258 254 257 258 257 256 255 246 241 240 242 247 248 249 251 251 250 252 256 258 258 261 265 271 272 270 268 268
282 282 279 279 281 283 282 281 277 279 278 273 268 266 264 262 256 255 256 256 256 251 244 241 242 243 246 246 247 250 252 251 252 255 259 259 262 265 269 273 275 274 273
283 280 277 277 278 280 281 281 278 279 281 276 272 270 269 268 262 257 252 252 251 248 245 244 244 247 248 245 245 249 251 251 255 259 261 262 264 268 273 277 279 278 275
281 274 276 280 277 276 280 282 281 278 278 277 273 273 270 268 264 258 252 249 245 245 245 243 244 247 248 246 246 248 252 256 258 261 263 263 265 268 270 275 276 280 280
276 274 277 283 280 277 277 281 279 276 276 277 270 269 267 266 262 256 253 246 244 244 245 244 246 247 248 250 251 252 256 258 258 259 262 263 264 266 269 272 276 280 281
273 275 282 286 283 280 280 282 280 276 275 277 274 272 269 268 264 259 256 254 248 245 245 245 246 249 251 252 254 254 255 256 259 260 263 265 265 265 267 270 274 279 280
272 276 281 281 282 279 279 280 282 278 275 276 276 273 270 266 263 261 258 256 252 247 244 243 244 250 253 253 253 255 254 255 259 261 265 266 265 265 266 267 270 275 279
275 275 274 276 277 277 276 277 279 278 278 276 274 271 268 264 260 259 257 255 253 249 245 245 247 250 252 253 252 252 256 258 260 262 265 267 267 265 266 269 273 275 278
273 272 271 273 274 274 274 274 277 277 277 277 275 271 266 262 258 256 256 255 254 250 251 249 248 250 251 251 251 252 255 257 259 261 263 266 268 266 268 271 272 274 277
273 272 272 273 275 276 276 274 276 276 275 274 274 272 268 265 261 259 257 255 254 253 253 252 249 248 251 252 252 251 252 255 258 259 261 262 265 265 267 269 271 274 277
269 270 272 274 277 279 279 275 274 276 276 273 272 272 269 266 264 261 259 256 255 254 253 253 251 249 250 252 252 251 250 252 255 258 260 261 262 263 265 268 272 274 276
270 271 273 275 278 279 278 276 275 277 275 271 269 268 267 265 265 262 258 257 256 254 251 251 250 250 250 250 250 249 249 250 252 257 259 260 261 262 265 268 271 273 275
272 272 273 275 276 277 276 276 279 278 276 271 268 267 265 264 263 262 258 256 256 256 254 252 250 250 250 249 248 250 250 251 253 256 258 259 261 263 265 267 269 271 273
274 273 275 277 277 276 275 274 276 275 274 270 268 265 263 262 263 263 260 258 258 257 258 254 251 250 250 250 249 250 251 252 254 256 257 259 262 264 265 267 268 269 271
272 272 273 275 276 276 275 274 273 272 272 271 268 265 263 261 262 262 261 259 259 257 255 252 252 251 252 252 251 251 252 253 254 256 258 260 261 264 267 267 268 268 269
270 270 273 273 274 275 274 272 271 270 270 269 268 267 265 263 261 261 261 261 260 258 256 252 252 252 252 251 252 252 253 253 255 257 258 259 261 263 266 267 268 268 268
270 270 272 272 272 272 273 271 269 268 268 267 266 267 265 263 262 261 262 261 262 260 258 251 251 252 253 253 253 252 252 254 255 256 257 259 261 262 265 266 267 267 268
270 270 270 270 270 271 272 272 269 267 267 267 267 265 264 264 263 263 262 262 260 259 258 254 251 251 253 252 252 253 253 254 255 255 256 258 260 261 263 265 266 267 269
269 270 269 269 270 271 272 271 268 267 266 265 266 265 264 264 265 264 262 258 257 256 257 253 251 252 253 252 252 252 253 254 255 257 257 257 258 261 264 265 265 267 269
271 270 269 269 268 269 270 269 268 266 265 264 264 263 264 265 265 264 262 258 257 257 257 254 252 253 253 254 253 252 252 253 255 258 258 258 258 260 264 265 265 266 269
269 269 268 268 269 268 267 268 268 265 264 262 262 264 264 264 264 263 262 259 258 258 258 257 256 254 254 253 253 252 254 255 256 259 259 259 259 261 263 264 265 267 269
Height
5860 5859 5858 5856 5856 5855 5855 5855 5855 5855 5855 5855 5855 5855 5854 5855 5855 5855 5855 5855 5855 5855 5856 5856 5857 5857 5858 5859 5859 5860 5860 5860 5861 5861 5861 5860 5860 5860 5860 5860 5859 5858 5858
5857 5856 5855 5853 5853 5853 5852 5852 5853 5852 5852 5852 5852 5851 5851 5851 5851 5852 5852 5852 5852 5852 5852 5853 5854 5854 5855 5856 5856 5857 5858 5858 5858 5858 5858 5858 5859 5858 5858 5857 5857 5856 5855
5855 5854 5853 5852 5851 5851 5850 5850 5850 5849 5849 5848 5848 5848 5847 5848 5848 5848 5848 5848 5848 5848 5849 5850 5851 5851 5852 5852 5853 5854 5855 5855 5855 5856 5856 5856 5856 5855 5855 5854 5854 5853 5852
5852 5851 5850 5849 5849 5848 5847 5847 5846 5846 5846 5845 5845 5845 5844 5844 5844 5845 5845 5845 5845 5845 5845 5846 5847 5848 5848 5849 5850 5851 5851 5852 5852 5852 5853 5853 5852 5852 5852 5852 5851 5850 5850
5849 5847 5846 5846 5845 5845 5844 5844 5843 5842 5842 5842 5841 5841 5841 5841 5841 5841 5841 5841 5841 5841 5842 5843 5844 5844 5845 5846 5847 5848 5848 5849 5849 5849 5849 5849 5849 5849 5849 5849 5848 5848 5847
5844 5843 5843 5842 5842 5842 5841 5840 5839 5839 5838 5838 5838 5838 5837 5837 5837 5837 5837 5837 5837 5838 5839 5840 5841 5842 5842 5843 5844 5844 5845 5845 5846 5846 5846 5846 5846 5846 5846 5845 5845 5844 5844
5840 5839 5839 5839 5839 5838 5838 5837 5836 5835 5835 5834 5834 5834 5833 5833 5833 5833 5834 5834 5834 5834 5835 5836 5837 5838 5839 5840 5840 5841 5842 5842 5843 5843 5843 5843 5843 5843 5843 5842 5842 5841 5841
5836 5835 5835 5836 5835 5835 5834 5833 5832 5832 5831 5831 5830 5830 5830 5829 5829 5830 5830 5830 5831 5831 5832 5833 5834 5835 5836 5836 5837 5838 5838 5839 5839 5840 5840 5840 5840 5839 5839 5839 5838 5838 5837
5831 5831 5831 5831 5831 5830 5830 5829 5829 5828 5827 5827 5826 5826 5826 5825 5825 5826 5826 5827 5827 5828 5829 5830 5831 5831 5832 5833 5834 5834 5835 5835 5836 5836 5836 5836 5836 5836 5835 5835 5835 5835 5834
5827 5827 5827 5827 5827 5826 5826 5825 5825 5824 5824 5823 5822 5823 5822 5822 5822 5822 5823 5823 5824 5825 5826 5827 5827 5828 5828 5829 5830 5831 5831 5832 5832 5832 5832 5833 5832 5832 5832 5831 5831 5831 5830
5822 5822 5823 5823 5823 5822 5821 5820 5820 5820 5820 5819 5819 5818 5818 5818 5818 5819 5819 5819 5820 5821 5822 5823 5824 5824 5825 5826 5827 5827 5828 5828 5828 5828 5829 5829 5829 5828 5828 5828 5827 5827 5826
5817 5817 5818 5818 5818 5818 5817 5816 5815 5815 5815 5815 5814 5814 5814 5814 5814 5815 5815 5815 5816 5817 5818 5818 5819 5820 5821 5822 5822 5823 5824 5824 5824 5825 5825 5825 5824 5824 5824 5824 5824 5823 5823
5812 5812 5813 5813 5813 5813 5813 5811 5811 5810 5810 5810 5809 5809 5809 5809 5809 5810 5810 5811 5811 5812 5813 5814 5815 5816 5817 5818 5818 5819 5819 5820 5820 5820 5821 5820 5821 5821 5820 5820 5820 5819 5819
5807 5807 5807 5807 5808 5807 5807 5806 5805 5804 5804 5804 5803 5803 5803 5803 5804 5804 5805 5806 5806 5807 5808 5809 5810 5811 5812 5813 5814 5814 5815 5815 5816 5816 5816 5816 5816 5817 5816 5816 5816 5815 5815
5801 5801 5801 5801 5801 5800 5800 5800 5799 5798 5798 5797 5797 5797 5797 5797 5798 5798 5799 5800 5801 5802 5803 5803 5804 5805 5806 5807 5808 5809 5810 5810 5811 5811 5811 5812 5812 5812 5812 5812 5811 5811 5810
5795 5794 5794 5794 5795 5794 5793 5793 5792 5792 5791 5791 5791 5791 5791 5791 5791 5792 5793 5794 5795 5796 5797 5797 5798 5800 5801 5802 5803 5804 5805 5805 5806 5806 5807 5807 5807 5807 5807 5807 5807 5806 5806
5788 5788 5787 5787 5788 5787 5787 5786 5785 5784 5784 5783 5783 5783 5784 5784 5785 5786 5787 5788 5789 5789 5790 5791 5792 5793 5795 5796 5797 5798 5799 5800 5801 5801 5802 5802 5802 5803 5803 5802 5802 5801 5801
5781 5780 5779 5780 5780 5779 5779 5779 5778 5776 5776 5776 5776 5776 5777 5777 5778 5779 5780 5781 5782 5783 5784 5785 5786 5787 5788 5790 5791 5792 5793 5795 5795 5796 5796 5797 5797 5797 5797 5797 5796 5796 5795
5773 5772 5772 5772 5772 5772 5771 5771 5770 5769 5769 5769 5769 5769 5769 5770 5771 5772 5773 5774 5775 5776 5777 5778 5779 5781 5782 5783 5784 5786 5787 5788 5789 5790 5791 5791 5792 5791 5791 5791 5791 5790 5789
5764 5764 5764 5764 5764 5764 5763 5762 5762 5762 5762 5761 5761 5761 5762 5763 5764 5764 5765 5766 5768 5769 5770 5771 5772 5774 5775 5777 5778 5779 5781 5782 5783 5784 5785 5785 5785 5785 5785 5785 5784 5784 5783
5756 5755 5756 5756 5756 5756 5755 5755 5755 5755 5754 5754 5754 5754 5755 5756 5756 5757 5758 5759 5760 5761 5762 5764 5765 5767 5769 5770 5771 5773 5774 5775 5776 5777 5778 5778 5778 5778 5778 5778 5777 5777 5777
5747 5747 5748 5748 5748 5748 5748 5748 5748 5747 5747 5747 5747 5747 5748 5749 5749 5750 5751 5752 5752 5753 5754 5755 5758 5759 5761 5763 5764 5765 5766 5768 5769 5770 5770 5771 5771 5771 5771 5770 5770 5770 5770
5739 5739 5740 5740 5740 5740 5740 5740 5740 5739 5739 5739 5739 5740 5741 5741 5742 5743 5743 5744 5745 5746 5747 5748 5750 5752 5753 5755 5756 5757 5758 5760 5761 5761 5762 5762 5763 5763 5763 5763 5763 5763 5763
5730 5731 5731 5731 5732 5731 5731 5731 5731 5731 5731 5732 5732 5732 5733 5734 5734 5735 5736 5736 5737 5738 5739 5741 5742 5743 5745 5746 5748 5749 5750 5751 5752 5753 5754 5755 5755 5755 5756 5756 5756 5756 5756
5722 5721 5722 5722 5723 5723 5722 5722 5723 5723 5723 5724 5724 5725 5726 5726 5727 5727 5728 5728 5730 5730 5732 5732 5734 5735 5737 5738 5739 5740 5742 5743 5744 5745 5746 5747 5747 5748 5748 5749 5748 5748 5748
5713 5712 5712 5713 5713 5714 5714 5714 5714 5714 5715 5716 5717 5717 5718 5718 5718 5719 5720 5720 5722 5723 5723 5724 5725 5726 5728 5729 5730 5732 5733 5735 5736 5737 5738 5739 5739 5740 5740 5740 5741 5740 5740